Avoca, PA

4:09 AM EDT on April 21, 2018 (GMT -0400)
Wilkes-Barre-Scranton International

Weather History for KAVP - May, 2014

Change the Weather History Date:

Friday, May 30, 2014

  Actual Average Record
Temperature  
Mean Temperature 65 °F 63 °F  
Max Temperature 77 °F 73 °F 93 °F (2006)
Min Temperature 53 °F 52 °F 37 °F (1996)
Degree Days  
Heating Degree Days 0 4  
Month to date heating degree days 143 224  
Since 1 July heating degree days 6507 6197  
Cooling Degree Days 0 2  
Month to date cooling degree days 34 29  
Year to date cooling degree days 41 35  
Growing Degree Days 15 (Base 50)    
Moisture  
Dew Point 48 °F    
Average Humidity 63    
Maximum Humidity 93    
Minimum Humidity 33    
Precipitation  
Precipitation 0.00 in 0.13 in 0.84 in (1972)
Month to date precipitation 2.75 3.40  
Year to date precipitation 12.71 13.68  
Sea Level Pressure  
Sea Level Pressure 30.10 in    
Wind  
Wind Speed 8 mph (NNW)    
Max Wind Speed 24 mph    
Max Gust Speed 31 mph    
Visibility 8 miles    
Events      
T = Trace of Precipitation, MM = Missing Value Source: NWS Daily Summary

Daily Weather History Graph

Daily Weather History Graph

Search for Another Location

Airport or City:

Astronomy

May. 30, 2014 Rise Set
Actual Time 5:32 AM EDT 8:28 PM EDT
Civil Twilight 5:00 AM EDT 9:01 PM EDT
Nautical Twilight 4:18 AM EDT 9:43 PM EDT
Astronomical Twilight 3:29 AM EDT 10:31 PM EDT
Moon 7:15 AM EDT (5/30) 10:02 PM EDT (5/30)
Length of Visible Light 16h 01m
Length of Day
14h 55m
Waxing Crescent, 4% of the Moon is Illuminated
May 30
Waxing Crescent
Jun 5
First Quarter
Jun 13
Full
Jun 19
Last Quarter
Jun 27
New

Hourly Weather History & Observations

Time (EDT) Temp. Dew Point Humidity Pressure Visibility Wind Dir Wind Speed Gust Speed Precip Events Conditions
12:54 AM 54.0 °F 50.0 °F 86% 30.14 in 10.0 mi Calm Calm - N/A   Overcast
1:54 AM 54.0 °F 51.1 °F 90% 30.12 in 4.0 mi Calm Calm - N/A   Overcast
2:06 AM 53.6 °F 51.8 °F 94% 30.12 in 4.0 mi Calm Calm - N/A   Overcast
2:54 AM 53.1 °F 52.0 °F 96% 30.12 in 3.0 mi Calm Calm - N/A   Overcast
3:54 AM 53.1 °F 51.1 °F 93% 30.11 in 4.0 mi Calm Calm - N/A   Overcast
4:54 AM 53.6 °F 51.8 °F 94% 30.10 in 6.0 mi Calm Calm - N/A   Overcast
5:37 AM 53.6 °F 51.8 °F 94% 30.11 in 5.0 mi Calm Calm - N/A   Overcast
5:54 AM 54.0 °F 51.1 °F 90% 30.11 in 6.0 mi West 3.5 mph - N/A   Overcast
6:54 AM 55.0 °F 51.1 °F 86% 30.12 in 4.0 mi Calm Calm - N/A   Overcast
7:54 AM 55.9 °F 51.1 °F 84% 30.14 in 7.0 mi WNW 3.5 mph - N/A   Overcast
8:54 AM 59.0 °F 51.1 °F 75% 30.13 in 9.0 mi Calm Calm - N/A   Mostly Cloudy
9:14 AM 62.6 °F 50.0 °F 63% 30.14 in 10.0 mi North 5.8 mph - N/A   Scattered Clouds
9:39 AM 62.6 °F 51.8 °F 68% 30.13 in 10.0 mi Variable 4.6 mph - N/A   Mostly Cloudy
9:54 AM 64.0 °F 48.9 °F 58% 30.12 in 10.0 mi NNE 10.4 mph - N/A   Scattered Clouds
10:54 AM 68.0 °F 48.0 °F 49% 30.12 in 10.0 mi NNW 8.1 mph - N/A   Scattered Clouds
11:54 AM 69.1 °F 46.9 °F 45% 30.11 in 10.0 mi NNE 15.0 mph - N/A   Scattered Clouds
12:54 PM 73.0 °F 46.9 °F 39% 30.09 in 10.0 mi North 12.7 mph - N/A   Partly Cloudy
1:54 PM 73.4 °F 48.2 °F 41% 30.09 in 10.0 mi NW 13.8 mph 19.6 mph N/A   Mostly Cloudy
2:54 PM 75.0 °F 46.9 °F 37% 30.06 in 10.0 mi NW 19.6 mph 24.2 mph N/A   Mostly Cloudy
3:54 PM 73.9 °F 46.9 °F 38% 30.05 in 10.0 mi WNW 11.5 mph 18.4 mph N/A   Scattered Clouds
4:54 PM 75.2 °F 44.6 °F 34% 30.05 in 10.0 mi NW 19.6 mph 28.8 mph N/A   Mostly Cloudy
5:54 PM 75.2 °F 46.4 °F 36% 30.03 in 10.0 mi NNW 10.4 mph 20.7 mph N/A   Scattered Clouds
6:54 PM 73.9 °F 46.9 °F 38% 30.03 in 10.0 mi NNW 12.7 mph 27.6 mph N/A   Overcast
7:54 PM 71.1 °F 43.0 °F 36% 30.05 in 10.0 mi North 12.7 mph 21.9 mph N/A   Mostly Cloudy
8:54 PM 66.9 °F 42.1 °F 40% 30.07 in 10.0 mi North 11.5 mph - N/A   Scattered Clouds
9:54 PM 64.9 °F 44.1 °F 47% 30.10 in 10.0 mi North 5.8 mph - N/A   Scattered Clouds
10:54 PM 64.0 °F 45.0 °F 50% 30.11 in 10.0 mi North 6.9 mph - N/A   Overcast
11:54 PM 59.0 °F 46.0 °F 62% 30.13 in 10.0 mi Calm Calm - N/A   Partly Cloudy